Regional Weather Roundup
Issued by NWS

Home | Current Version | Previous Version | Graphics & Text | Print | Product List | Glossary Off
Versions: 1 2 3 4 5 6 7 8 9 10 11 12 13 14 15 16 17 18 19 20 21 22 23 24 25 26 27 28 29 30 31 32 33 34 35 36 37 38 39 40 41 42 43 44 45 46 47 48 49 50

000
ASUS43 KTOP 241708
RWRKS

WEATHER ROUNDUP FOR KANSAS
NATIONAL WEATHER SERVICE GOODLAND KS
1100 AM CST FRI FEB 24 2017

NOTE:  "FAIR" INDICATES FEW OR NO CLOUDS BELOW 12,000 FEET WITH NO
SIGNIFICANT WEATHER AND/OR OBSTRUCTIONS TO VISIBILITY.

KSZ001>006-013>018-027>032-041>047-241800-
NORTHWEST KANSAS

CITY           SKY/WX    TMP DP  RH WIND       PRES   REMARKS
GOODLAND       CLOUDY    25  21  85 N21       29.96R WCI  11
HAYS           PTSUNNY   30  21  69 N22G33    29.94R WCI  17
HILL CITY      LGT SNOW  30  25  81 N22G33    29.97R WCI  17
RUSSELL        LGT SNOW  28  21  75 N26G33    29.92R WCI  13
$$

KSZ061>065-074>080-084>089-241800-
SOUTHWEST KANSAS

CITY           SKY/WX    TMP DP  RH WIND       PRES   REMARKS
DODGE CITY     CLOUDY    34  19  54 N23G35    29.93R WCI  22
ELKHART          N/A     30   9  41 NW13        N/A  WCI  20
GARDEN CITY    CLOUDY    31  16  54 N24G32    29.95R WCI  17
GREAT BEND     CLOUDY    32  22  66 N21       29.92R WCI  20
LIBERAL        MOSUNNY   34  18  51 NW21G31   29.97S WCI  22
PRATT          CLOUDY    31  18  57 NW24      29.92R WCI  18
$$

KSZ066>073-081>083-090>101-241800-
SOUTHEAST KANSAS

CITY           SKY/WX    TMP DP  RH WIND       PRES   REMARKS
CHANUTE        CLOUDY    41  27  57 NW25G33   29.80R
COFFEYVILLE    MOSUNNY   45  28  51 NW16G30   29.83R
HUTCHINSON     CLOUDY    35  23  61 NW22G33   29.88R WCI  23
MEDICINE LODGE   N/A     36  19  50 NW23G33   29.91R WCI  24
NEWTON         LGT RAIN  33  27  78 NW22G31   29.86R WCI  21
PARSONS        MOSUNNY   46  28  49 NW22      29.82R
WICHITA INTL   CLOUDY    37  24  59 NW25G31   29.88R WCI  25
WICHITA JABRA  CLOUDY    36  24  62 NW22G30   29.86R WCI  25
WICHITA MCCONL PTSUNNY   37  22  56 NW20G26   29.86R WCI  26
WINFIELD       CLOUDY    40  25  55 NW23G31   29.89R WCI  30
$$

KSZ007>012-019>026-033>040-048>060-102>105-241800-
NORTHEAST KANSAS

CITY           SKY/WX    TMP DP  RH WIND       PRES   REMARKS
CONCORDIA      LGT SNOW  26  23  88 NW22G30   29.90R FOG     WCI  12
EMPORIA        CLOUDY    37  28  70 W22G31    29.79R WCI  26
LAWRENCE       LGT RAIN  36  35  96 NW21      29.74R FOG     WCI  25
MANHATTAN      CLOUDY    32  27  81 N13G23    29.84R WCI  22
MARYSVILLE     FLURRIES  30  27  86 N18G24    29.82R WCI  18
OLATHE IND     LGT RAIN  39  33  79 W16G25    29.72R WCI  30
OLATHE EXE     LGT RAIN  39  33  79 W13G24    29.70R WCI  31
SALINA         CLOUDY    33  24  69 NW28      29.89R WCI  20
TOPEKA BILLARD CLOUDY    38  34  85 NW14      29.75R WCI  30
TOPEKA FORBES  CLOUDY    39  35  86 NW14      29.75R WCI  31
$$



USA.gov is the U.S. government's official web portal to all federal, state and local government web resources and services.